Kosmos-1480

operational
NORAD ID: 14178 Int'l Des: 1983-069 Owner: GUKOS Country: SU
LEOCIRCULAR

Kosmos-1480について

説明を読み込み中...

リアルタイム位置

3D地球を読み込み中...

次回通過

高度履歴

Altitude vs Time

uPlot chart will show altitude changes over time

軌道要素

1 14178U 83069H 26061.15835556 -.00000017 00000-0 -77283-5 0 9992
2 14178 74.0299 356.4647 0036224 175.0722 294.2937 12.43700139936633
Epoch: Mar 2, 2026 • Age: 27 hours

現在のステータス

高度 1516.5 km
速度 7.10 km/s
衛星直下点 32.04°N, 166.21°E
打ち上げ日 Jul 6, 1983
運用期間 42.6 years
タイプ other

技術仕様

分類 Payload
質量 60.00 kg
乾燥質量 60.00 kg
総質量 60.00 kg
長さ 0.80 m
直径 0.80 m
スパン 0.80 m
形状 Poly
製造者 NPOPM
バスタイプ Strela-1 11F625
フェーズステータス In Orbit
所有者/国 GUKOS/SU

大規模コンステレーション

Loading constellations...